Flag for Mexico

Past Weather in 20°33'31"N, 100°16'22"W, Mexico — Yesterday and Last 2 Weeks

Now
61 °F

Passing clouds.


Feels Like: 61 °F
Forecast: 84 / 59 °F
Wind: 2 mph from West

Location: Queretaro - Qro.

Current Time: Jul 6, 2020 at 1:57:25 am

Latest Report: Jul 6, 2020 at 12:40 am


Visibility: 5 mi

Pressure: 30.30 "Hg

Humidity: 88%

Dew Point: 57 °F

Location of 20°33'31"N, 100°16'22"WLocation

Past Weather in 20°33'31"N, 100°16'22"W — Graph

°F

20°33'31"N, 100°16'22"W Temperature Yesterday

Maximum temperature yesterday: 84 °F (at 4:43 pm)
Minimum temperature yesterday: 55 °F (at 6:41 am)
Average temperature yesterday: 68 °F

High & Low Weather Summary for the Past Weeks

 TemperatureHumidityPressure
High84 °F (Jun 21, 3:51 pm)100% (Jun 22, 4:47 am)30.37 "Hg (Jun 22, 4:47 am)
Low55 °F (Jun 21, 7:47 am)24% (Jul 3, 2:47 pm)30.13 "Hg (Jun 28, 5:49 pm)
Average68 °F69%30.27 "Hg
* Reported Jun 21 12:40 am — Jul 6 12:40 am, 20°33'31"N, 100°16'22"W. Weather by CustomWeather, © 2020

Note: Actual official high and low records may vary slightly from our data, if they occured in-between our weather recording intervals... More about our weather records

20°33'31"N, 100°16'22"W Weather History for the Previous 24 Hours

Scroll right to see more
 ConditionsComfort  
Time TempWeatherWind HumidityBarometerVisibility
12:40 am
Mon, Jul 6
61 °FPassing clouds.2 mph88%30.30 "Hg5 mi
11:44 pm
Sun, Jul 5
63 °FPassing clouds.5 mph88%30.30 "Hg5 mi
10:40 pm63 °FMostly cloudy.5 mph88%30.29 "Hg5 mi
9:47 pm63 °FMostly cloudy.7 mph88%30.27 "Hg5 mi
8:47 pm59 °FMostly cloudy.9 mph100%30.25 "Hg5 mi
7:45 pm61 °FThunderstorms. Mostly cloudy.5 mph88%30.22 "Hg3 mi
6:59 pm75 °FMostly cloudy.14 mph47%30.19 "Hg5 mi
5:43 pm81 °FMostly cloudy.12 mph37%30.15 "Hg7 mi
4:43 pm84 °FPartly sunny.6 mph31%30.16 "Hg8 mi
3:43 pm82 °FPartly sunny.5 mph32%30.19 "Hg8 mi
2:50 pm81 °FScattered clouds.6 mph34%30.22 "Hg8 mi
1:51 pm79 °FScattered clouds.No wind42%30.26 "Hg8 mi
12:47 pm75 °FScattered clouds.6 mph47%30.29 "Hg8 mi
11:51 am73 °FScattered clouds.5 mph53%30.31 "Hg7 mi
10:41 am68 °FScattered clouds.6 mph64%30.32 "Hg7 mi
9:41 am66 °FSunny.5 mph68%30.33 "Hg7 mi
8:41 am63 °FSunny.5 mph77%30.31 "Hg7 mi
7:42 am57 °FPassing clouds.No wind88%30.30 "Hg7 mi
6:41 am55 °FPassing clouds.No wind94%30.29 "Hg7 mi
3:41 am61 °FClear.No wind77%30.29 "Hg7 mi
2:46 am63 °FPassing clouds.5 mph73%30.29 "Hg7 mi
1:43 am64 °FPassing clouds.8 mph68%30.31 "Hg7 mi
Weather by CustomWeather, © 2020

See weather overview